Helicity
1 1 -2 -12 -16 30 50 68 35 108 38 19 18 41 87 82 33 -18 -56 -26 22 -2 34 48 13 41 14 8 -4 -7 -16 7 -18 -13 7 -2 12 16 18 12 -7 15 13 18
23 -12 -12 0 41 38 -3 8 14 78 45 19 29 1 37 132 91 -36 40 -33 -1 -2 32 50 6 43 23 15 6 3 -5 -5 -15 -7 29 35 3 24 1 12 -1 21 21 17
-2 23 41 77 14 -12 -10 -18 16 54 53 14 7 -13 49 69 68 6 22 -57 -7 25 28 48 11 32 42 30 12 16 4 0 -13 40 1 34 59 30 16 -2 4 14 20 11
8 77 72 13 -12 -2 -17 40 15 45 25 14 25 46 42 82 62 91 39 -15 -24 -53 10 53 32 6 35 65 8 30 8 5 -18 3 -18 12 29 12 21 -3 25 4 14 17
-1 53 12 -3 -7 1 -18 68 22 22 -6 7 27 22 -6 98 98 83 83 -3 -8 -44 -100 57 50 21 41 64 31 15 1 -13 5 -6 28 -25 17 7 -12 28 13 27 12 23
47 20 3 -17 31 19 5 36 -4 4 8 12 -19 43 -20 88 43 13 47 37 -39 39 -29 -1 56 54 25 63 49 29 23 -10 4 38 -12 -9 15 40 66 14 -5 -5 -5 -7
12 19 9 -1 22 13 -3 -8 10 21 43 14 112 20 14 16 56 10 77 80 52 70 27 -18 27 68 95 24 80 38 38 4 9 23 -16 15 19 20 16 16 9 26 23 -31
-11 47 37 41 -25 0 14 -36 -52 11 -8 131 56 45 71 140 39 37 35 83 60 91 58 -9 27 69 142 54 86 39 76 25 15 24 33 37 26 29 12 19 23 16 9 35
26 14 52 10 12 -23 -4 36 -46 5 3 3 143 21 109 169 74 21 7 91 85 12 -51 40 51 25 114 125 79 44 73 41 21 18 24 41 28 34 36 62 34 19 18 19
31 6 42 15 -2 14 -44 47 11 18 -21 10 10 2 106 176 146 38 7 57 57 10 16 62 52 62 106 98 71 38 52 44 37 20 26 33 40 32 35 47 21 32 27 29
-3 -5 48 26 18 -27 41 38 15 39 9 17 -22 102 107 30 96 38 85 12 59 52 93 62 212 40 126 124 65 49 48 50 37 36 46 36 18 19 35 19 33 19 30 29
41 -5 -3 7 41 4 48 31 38 8 74 96 47 89 135 59 33 124 -20 30 37 75 50 83 93 47 158 145 53 66 53 52 38 52 69 61 57 49 44 36 25 47 17 33
27 0 3 -3 -6 81 41 3 11 28 48 47 83 78 235 97 5 68 47 47 -13 -40 54 95 217 213 180 143 69 96 70 66 54 47 55 52 51 51 44 39 35 37 34 41
54 -11 12 24 56 38 78 9 90 104 40 20 41 39 61 62 83 38 3 1 41 -94 48 175 213 204 215 114 100 124 93 83 76 57 39 46 45 41 38 38 42 37 49 44
11 -7 -6 -3 7 28 15 105 1 207 148 40 51 91 26 103 -5 29 8 10 29 -18 22 87 130 162 192 97 179 199 156 115 86 75 52 44 42 34 36 47 39 51 47 47
-2 7 25 32 16 15 35 55 140 -20 38 32 88 38 139 20 94 108 87 -22 -37 -23 -43 -40 24 93 92 138 112 131 242 191 173 126 96 72 63 69 57 47 49 54 54 61
18 5 9 -4 5 46 11 21 81 56 21 78 114 127 -9 82 45 134 164 76 -3 21 24 34 56 161 172 135 153 138 227 253 136 120 92 116 89 57 59 54 74 78 83 101
9 23 19 7 12 36 72 33 73 182 85 60 9 43 57 70 52 113 117 160 145 167 184 152 100 34 99 240 194 206 240 246 171 107 97 108 117 87 97 97 72 101 131 144
-1 29 -20 -10 9 39 41 76 86 95 39 15 -6 38 26 44 44 91 122 131 147 76 126 109 35 45 76 107 147 200 227 264 282 192 161 139 127 109 94 115 99 135 148 164
-11 44 5 -25 21 66 46 84 76 168 35 45 57 58 31 28 41 56 88 81 117 103 113 65 42 70 12 -29 54 90 90 88 148 202 136 112 133 112 63 67 72 81 126 182
35 20 20 36 33 34 48 20 36 7 44 212 64 43 87 98 76 59 64 70 96 119 102 81 84 69 122 86 -7 -46 -17 -45 61 63 90 105 118 71 84 54 136 183 138 162
18 11 11 5 1 19 102 35 30 64 18 0 59 54 44 64 61 45 62 74 91 89 50 67 62 60 126 174 147 207 200 169 114 115 54 82 91 75 55 22 30 42 101 118
32 40 48 1 39 46 46 39 50 47 30 34 37 30 45 50 37 47 58 74 85 87 71 50 40 92 119 132 136 237 194 196 222 235 207 173 145 113 138 97 107 63 50 33
57 33 10 24 90 25 45 47 46 33 39 53 23 16 44 81 84 66 63 67 51 59 77 57 63 75 81 96 102 126 111 109 137 160 139 128 158 158 103 81 85 47 52 32
101 13 19 22 39 39 39 37 45 40 43 17 15 48 66 66 49 53 18 16 -2 47 40 48 65 74 76 49 42 41 32 30 50 56 54 50 69 82 99 114 83 60 62 29
24 14 -10 53 60 63 14 36 50 48 22 49 57 55 51 57 68 74 77 73 68 50 46 45 47 56 57 66 63 57 38 31 27 30 32 23 23 27 33 39 75 76 57 58
Wind_Speed
16 18 8 3 6 49 33 32 33 28 25 21 13 4 5 6 4 32 50 33 27 33 32 27 29 21 32 30 42 42 54 34 48 49 51 49 46 41 35 32 33 38 37 36
21 39 28 44 26 31 19 21 22 31 26 26 29 35 13 5 11 35 25 43 32 28 28 27 28 25 29 33 37 38 46 40 55 53 47 37 45 45 47 34 37 43 40 36
46 17 25 23 24 22 8 14 26 33 27 27 38 46 15 3 3 27 32 47 32 31 31 30 29 28 25 25 39 34 41 38 57 50 53 44 31 33 38 41 45 46 45 41
45 24 31 22 36 19 5 13 29 33 32 47 25 52 17 8 10 12 26 24 37 25 32 26 29 28 26 23 41 30 35 37 55 59 57 52 51 50 48 46 33 38 44 44
36 27 29 18 15 22 35 35 32 22 34 51 39 49 56 11 24 15 22 40 35 51 33 27 25 26 22 23 25 38 43 39 64 63 52 52 57 47 49 38 35 42 41 44
51 29 20 23 25 29 32 32 25 24 28 48 42 34 50 36 23 26 15 26 36 45 35 23 22 23 16 18 20 22 28 28 61 28 62 62 56 48 31 47 43 46 49 48
20 24 20 27 27 14 18 16 18 16 15 36 21 31 46 38 7 29 20 24 34 48 40 39 24 23 18 22 15 17 15 14 11 10 54 61 57 52 44 46 52 41 42 47
30 21 6 12 17 19 14 21 21 28 32 30 34 45 39 44 48 39 24 21 28 63 37 73 32 24 23 20 14 12 13 13 15 12 23 55 56 51 56 31 50 43 51 48
33 26 22 27 18 23 27 19 32 60 56 40 21 23 27 32 43 39 31 23 30 40 44 72 38 30 24 22 20 17 14 13 15 16 16 33 57 60 49 45 39 46 46 48
34 30 19 21 24 29 34 32 33 25 42 46 34 32 37 42 52 50 33 27 22 37 42 68 62 35 29 26 25 23 18 14 14 15 13 28 53 52 61 49 36 49 50 43
40 30 25 26 25 31 13 19 17 23 41 47 46 22 25 37 41 42 25 37 29 38 73 87 59 40 33 31 32 28 24 19 18 16 16 18 10 9 48 62 38 50 48 40
32 36 42 32 32 20 22 22 65 51 24 27 23 39 56 53 42 41 25 35 42 39 65 74 83 66 38 34 35 30 30 25 24 26 34 22 34 50 34 39 52 36 49 37
37 28 38 37 36 18 32 35 45 36 57 54 51 42 31 50 49 39 49 35 40 42 60 63 60 66 40 37 39 32 33 32 26 26 27 32 29 39 55 50 48 41 34 38
32 46 52 63 62 40 57 52 61 62 52 47 35 45 38 52 60 50 46 42 35 38 51 56 67 63 49 46 42 43 37 35 33 28 28 29 34 34 34 38 42 41 39 36
19 34 39 48 60 58 47 31 47 67 87 68 44 50 49 32 42 45 46 39 34 37 21 46 71 75 55 54 55 54 48 39 34 32 32 32 31 33 37 37 37 32 35 33
20 40 45 55 60 54 51 35 16 69 60 43 69 39 34 30 26 36 44 41 52 55 41 37 45 50 71 71 58 62 56 48 44 41 40 39 35 37 36 35 39 37 35 36
22 41 45 51 43 51 52 44 66 77 61 53 59 58 33 50 41 40 41 41 41 51 49 49 39 35 43 44 65 60 51 58 52 43 43 46 42 41 42 44 42 40 39 41
27 30 35 41 48 54 44 70 57 86 73 52 78 57 37 38 36 37 38 38 39 33 31 35 39 36 41 41 47 52 53 48 48 48 46 43 41 44 49 49 56 51 45 47
13 18 25 32 27 52 28 40 65 67 60 68 82 42 34 28 27 34 35 34 36 33 33 29 31 29 23 24 30 47 51 57 55 46 37 33 42 49 54 54 57 53 48 52
16 12 11 13 33 37 46 49 44 71 37 65 64 46 45 39 52 41 35 33 34 29 34 33 33 26 22 25 16 36 40 46 41 47 45 38 41 48 52 59 59 57 50 53
15 9 3 4 8 26 36 17 16 17 46 46 39 46 33 36 33 24 26 30 31 29 32 29 30 31 28 32 32 22 27 33 36 32 34 40 40 43 47 51 43 36 34 31
26 4 5 11 13 17 39 38 31 35 45 15 25 23 21 16 16 17 19 23 28 25 26 29 29 29 29 29 27 26 24 26 14 19 20 22 25 27 29 30 30 28 25 28
19 37 15 18 20 30 34 44 44 45 46 40 25 19 9 11 12 13 15 20 25 26 27 29 32 32 31 28 24 18 25 22 19 20 24 28 21 23 24 24 27 26 26 26
10 28 21 34 36 33 34 28 29 35 35 27 17 9 8 7 11 14 15 18 20 24 26 28 30 31 32 29 28 26 23 22 21 20 23 23 24 22 23 28 29 26 28 30
30 21 27 11 17 27 24 21 18 19 18 17 16 14 10 9 11 13 16 17 17 18 22 24 25 26 27 29 32 32 30 29 29 27 22 24 24 25 26 28 28 27 30 30
22 30 25 29 33 30 28 23 21 14 13 15 16 16 15 12 12 14 17 18 18 17 20 23 23 24 25 23 25 23 26 29 28 27 26 26 27 28 28 27 28 33 32 32
Wind_Direction
293 287 274 270 300 279 304 324 320 345 355 3 14 79 49 123 168 177 180 155 141 146 132 119 119 102 120 121 133 133 150 114 139 137 176 182 189 204 214 219 221 214 215 217
297 276 282 274 298 299 325 329 331 334 342 336 333 315 340 149 163 178 167 172 155 146 138 131 131 120 125 128 133 133 142 130 164 162 198 216 201 202 195 222 216 207 213 220
254 307 290 294 301 308 334 332 329 324 341 331 316 307 301 298 204 178 248 184 167 159 155 144 141 135 129 130 141 137 142 134 169 207 187 209 229 224 214 209 208 208 209 219
266 298 290 297 285 312 15 336 316 324 323 306 333 291 319 280 285 226 199 189 176 174 163 155 150 149 140 135 150 141 143 142 167 188 185 203 198 192 197 203 228 225 222 221
275 292 287 303 309 311 297 317 318 331 313 300 308 297 298 284 288 276 207 190 180 180 178 167 161 156 151 141 141 150 154 151 203 188 216 161 195 211 202 229 234 226 232 226
267 299 304 307 316 307 306 314 324 330 320 300 303 296 297 298 300 293 248 203 195 183 188 211 177 169 168 152 144 147 152 155 210 249 187 189 204 219 255 220 223 221 216 221
307 304 309 301 307 325 313 317 327 337 329 311 328 312 299 306 70 304 266 225 201 241 214 239 217 183 183 165 164 152 158 172 195 219 171 215 220 230 246 237 219 243 243 237
309 308 317 329 299 314 304 293 299 319 330 332 334 308 303 305 313 309 297 238 225 241 212 234 222 206 192 226 194 192 168 185 180 188 251 237 234 239 223 261 234 250 229 242
319 316 347 323 317 297 306 290 295 295 298 308 311 322 326 303 323 317 293 269 253 200 194 236 227 202 199 218 221 222 221 183 185 192 244 257 236 230 247 255 261 254 255 255
336 321 334 331 311 302 292 312 304 304 300 300 312 315 315 298 299 310 300 272 247 241 236 236 235 219 218 226 227 234 231 227 212 195 219 256 248 245 232 248 271 260 260 274
321 326 336 330 306 295 310 293 283 310 302 299 299 320 293 320 314 308 310 293 256 255 241 233 239 227 218 223 231 236 237 240 239 222 230 252 214 234 254 238 274 262 265 280
344 319 304 306 326 315 314 305 270 288 299 309 280 308 290 309 324 302 336 304 284 262 250 245 234 241 222 218 231 229 240 243 250 249 254 252 261 254 268 271 264 282 270 286
334 323 308 303 302 294 301 290 292 293 279 288 295 304 314 294 292 312 287 304 289 277 252 242 240 238 220 224 232 227 238 245 248 251 250 258 261 263 255 264 270 279 290 289
326 303 293 281 288 309 287 288 287 282 277 290 291 300 294 285 282 286 296 293 296 286 251 242 234 239 241 240 236 239 240 244 248 250 254 257 262 267 273 276 277 281 285 290
337 311 309 301 292 296 300 300 299 267 254 272 288 296 293 300 283 294 287 300 293 281 280 242 234 238 251 248 245 244 247 244 247 250 255 260 263 268 273 279 283 290 290 294
330 309 312 301 296 299 298 292 270 212 272 291 270 290 298 293 347 305 295 272 254 221 257 254 253 251 245 245 249 244 245 253 255 255 260 264 265 270 275 280 284 288 291 293
328 312 311 305 316 310 299 296 282 275 278 280 277 274 308 301 301 286 285 282 280 242 250 257 260 257 250 253 244 246 247 250 258 261 262 265 273 273 274 279 283 285 286 288
322 322 320 314 316 305 318 302 281 262 266 265 242 271 296 302 294 295 293 291 288 290 274 274 278 278 263 260 246 245 249 251 256 260 263 268 275 277 279 281 282 283 285 284
332 332 322 322 324 328 332 314 285 283 282 259 247 298 286 297 292 298 299 299 292 303 294 289 309 283 291 281 254 242 249 252 258 258 264 274 278 281 282 289 282 284 289 286
345 351 335 332 332 335 319 318 323 238 289 260 267 277 273 280 266 283 298 303 299 314 304 303 307 314 298 282 319 244 256 253 258 252 262 278 290 289 293 287 285 286 291 289
350 16 190 218 341 347 342 39 40 336 266 266 269 264 274 280 290 308 304 306 313 328 308 317 301 286 296 278 259 259 263 267 268 274 272 277 289 293 306 308 293 296 306 304
323 357 357 7 16 356 331 326 308 290 278 263 302 286 277 302 304 319 332 320 335 340 323 345 335 310 312 306 285 273 269 275 330 291 322 298 303 316 325 314 327 341 326 309
335 305 356 12 7 345 338 300 287 289 291 289 301 305 294 286 314 336 349 353 1 1 358 356 0 352 352 352 346 332 303 313 323 320 314 301 327 333 339 346 344 335 345 349
352 307 338 328 328 335 335 346 317 289 290 306 318 19 44 305 329 339 344 353 359 16 11 17 11 9 8 6 6 17 18 12 13 2 0 352 353 3 18 15 21 24 7 358
308 294 331 110 1 350 348 17 359 323 329 13 43 41 349 340 340 342 338 351 338 349 354 359 4 10 10 20 28 33 36 39 42 37 18 15 11 10 3 1 4 4 2 358
297 298 319 339 337 17 60 33 39 352 340 0 21 28 25 5 341 342 350 342 354 349 1 13 17 17 17 9 16 10 20 34 34 28 20 19 20 18 16 15 5 359 359 359